Northeast Philadelphia, PA

11:02 AM EST on November 21, 2019 (GMT -0500)
Northeast Philadelphia

Weather History for KPNE - September, 2019

Change the Weather History Date:

Monday, September 23, 2019

  Actual Average Record
Temperature  
Mean Temperature 82 °F -  
Max Temperature 93 °F 72 °F 91 °F (2005)
Min Temperature 72 °F 53 °F 44 °F (1999)
Cooling Degree Days 16    
Growing Degree Days 32 (Base 50)    
Moisture  
Dew Point 63 °F    
Average Humidity 57    
Maximum Humidity 78    
Minimum Humidity 31    
Precipitation  
Precipitation 0.00 in - - ()
Sea Level Pressure  
Sea Level Pressure 29.89 in    
Wind  
Wind Speed 7 mph ()    
Max Wind Speed 14 mph    
Max Gust Speed 22 mph    
Visibility 10.0 miles    
Events      
Averages and records for this station are not official NWS values.
T = Trace of Precipitation, MM = Missing Value Source: Averaged Metar Reports

Daily Weather History Graph

Daily Weather History Graph

Search for Another Location

Airport or City:

Astronomy

Sep. 23, 2019 Rise Set
Actual Time 6:48 AM EDT 6:55 PM EDT
Civil Twilight 6:21 AM EDT 7:22 PM EDT
Nautical Twilight 5:49 AM EDT 7:54 PM EDT
Astronomical Twilight 5:17 AM EDT 8:26 PM EDT
Moon 12:29 AM EDT (9/23) 3:47 PM EDT (9/23)
Length of Visible Light 13h 01m
Length of Day
12h 07m
Waning Crescent, 33% of the Moon is Illuminated
Sep 23
Waning Crescent
Sep 28
New
Oct 5
First Quarter
Oct 13
Full
Oct 21
Last Quarter

Hourly Weather History & Observations

Time (EDT) Temp. Heat Index Dew Point Humidity Pressure Visibility Wind Dir Wind Speed Gust Speed Precip Events Conditions
12:54 AM 75.9 °F - 64.9 °F 69% 30.01 in 10.0 mi SSW 9.2 mph - N/A   Clear
1:54 AM 75.0 °F - 64.9 °F 71% 30.00 in 10.0 mi SW 6.9 mph - N/A   Clear
2:54 AM 75.0 °F - 64.9 °F 71% 29.98 in 10.0 mi SSW 4.6 mph - N/A   Clear
3:54 AM 73.0 °F - 64.9 °F 76% 29.97 in 10.0 mi SW 4.6 mph - N/A   Clear
4:54 AM 73.0 °F - 64.9 °F 76% 29.96 in 10.0 mi SSW 3.5 mph - N/A   Clear
5:54 AM 72.0 °F - 64.9 °F 78% 29.96 in 10.0 mi SSW 3.5 mph - N/A   Clear
6:54 AM 72.0 °F - 64.9 °F 78% 29.96 in 10.0 mi SW 3.5 mph - N/A   Clear
7:54 AM 73.9 °F - 66.0 °F 76% 29.96 in 10.0 mi SSW 6.9 mph - N/A   Partly Cloudy
8:54 AM 75.9 °F - 66.9 °F 74% 29.96 in 10.0 mi SW 5.8 mph - N/A   Mostly Cloudy
9:54 AM 79.0 °F - 66.0 °F 64% 29.95 in 10.0 mi SW 10.4 mph - N/A   Clear
10:54 AM 82.0 °F 84.5 °F 66.9 °F 60% 29.93 in 10.0 mi SW 6.9 mph - N/A   Clear
11:54 AM 84.9 °F 87.6 °F 66.9 °F 55% 29.91 in 10.0 mi SSW 6.9 mph - N/A   Clear
12:54 PM 87.1 °F 88.9 °F 64.9 °F 48% 29.88 in 10.0 mi SSW 9.2 mph - N/A   Partly Cloudy
1:54 PM 90.0 °F 91.3 °F 64.0 °F 42% 29.86 in 10.0 mi WSW 9.2 mph - N/A   Clear
2:54 PM 90.0 °F 90.3 °F 62.1 °F 39% 29.83 in 10.0 mi SW 10.4 mph - N/A   Partly Cloudy
3:54 PM 91.9 °F 91.2 °F 59.0 °F 33% 29.81 in 10.0 mi SW 11.5 mph 19.6 mph N/A   Clear
4:54 PM 91.9 °F 90.6 °F 57.0 °F 31% 29.79 in 10.0 mi SW 9.2 mph 17.3 mph N/A   Clear
5:54 PM 90.0 °F 88.6 °F 57.0 °F 33% 29.78 in 10.0 mi SW 13.8 mph 21.9 mph N/A   Mostly Cloudy
6:54 PM 89.1 °F 88.0 °F 57.9 °F 35% 29.78 in 10.0 mi SW 9.2 mph 19.6 mph N/A   Overcast
7:54 PM 87.1 °F 86.5 °F 59.0 °F 39% 29.79 in 10.0 mi West 9.2 mph - N/A   Overcast
8:54 PM 82.9 °F 83.7 °F 62.1 °F 49% 29.79 in 10.0 mi West 5.8 mph - N/A   Overcast
9:54 PM 82.9 °F 83.7 °F 62.1 °F 49% 29.80 in 10.0 mi WNW 5.8 mph - N/A   Overcast
10:54 PM 81.0 °F 82.5 °F 64.0 °F 56% 29.80 in 10.0 mi WNW 9.2 mph - N/A   Overcast
11:54 PM 79.0 °F - 64.0 °F 60% 29.80 in 10.0 mi NW 12.7 mph 18.4 mph N/A   Overcast